Location: Pasadena, ca
(34.1243°N, 118.1037°W)
Time: 02:37:51
(UTC-07:00)

ISS - Pass Details

Date: 14 October 2017
Orbit: 400 x 408 km, 51.6° (Epoch: 24 October)

Event Time Altitude Azimuth Distance (km) Brightness Sun altitude
Rises 19:33:09 0° 315° (NW) 2,323 0.7 -16.1°
Reaches altitude 10° 19:35:15 10° 319° (NW) 1,462 -0.4 -16.6°
Maximum altitude 19:38:30 65° 42° (NE) 448 -3.9 -17.2°
Enters shadow 19:39:01 54° 93° (E) 499 -3.8 -17.3°
